Location: Dannhausen
(51.8650°N, 10.1026°E)
Time: 01:51:40
(UTC+00:00)

Cosmos 2233 Rocket - Pass Details

Date: 14 August 2020
Orbit: 952 x 992 km, 82.9° (Epoch: 26 September)

Event Time Altitude Azimuth Distance (km) Brightness Sun altitude
Exits shadow 23:54:34 13° 256° (WSW) 2,558 6.0 -23.8°
Maximum altitude 23:58:36 22° 300° (WNW) 2,012 5.8 -23.7°
Drops below altitude 10° 00:03:26 10° 350° (N) 2,764 7.3 -23.6°
Sets 00:06:37 0° 5° (N) 3,713 8.5 -23.5°
